Weather History for KBML - December, 2005

Change the Weather History Date:

Friday, December 30, 2005

  Actual Average Record
Temperature  
Mean Temperature 18 °F -  
Max Temperature 35 °F 25 °F 41 °F (2003)
Min Temperature 0 °F 5 °F -7 °F (1998)
Degree Days  
Heating Degree Days 48    
Moisture  
Dew Point 22 °F    
Average Humidity 86    
Maximum Humidity 96    
Minimum Humidity 71    
Precipitation  
Precipitation 0.11 in - - ()
Sea Level Pressure  
Sea Level Pressure 29.57 in    
Wind  
Wind Speed 4 mph (NW)    
Max Wind Speed 15 mph    
Max Gust Speed 24 mph    
Visibility 4 miles    
Events Fog , Rain , Snow    
Averages and records for this station are not official NWS values.
T = Trace of Precipitation, MM = Missing Value Source: NWS Daily Summary

Daily Weather History Graph

Daily Weather History Graph

Search for Another Location

Airport or City:

Trip Planner

Search our weather history database for the weather conditions in past years. The results will help you decide how hot, cold, wet, or windy it might be!

Date:

Astronomy

Dec. 30, 2005 Rise Set
Actual Time 7:21 AM EST 4:13 PM EST
Civil Twilight 6:47 AM EST 4:46 PM EST
Nautical Twilight 6:11 AM EST 5:23 PM EST
Astronomical Twilight 5:35 AM EST 5:59 PM EST
Moon 7:20 AM EST (12/30) 3:22 PM EST (12/30)
Length of Visible Light 9h 59m
Length of Day
8h 52m
Waning Crescent, 0% of the Moon is Illuminated
Dec 30
Waning Crescent
Dec 30
New
Jan 6
First Quarter
Jan 14
Full
Jan 22
Last Quarter

Hourly Weather History & Observations

Time (EST) Temp. Windchill Dew Point Humidity Pressure Visibility Wind Dir Wind Speed Gust Speed Precip Events Conditions
12:01 AM 33.8 °F - 32.0 °F 93% 29.32 in 1.8 mi Calm Calm - 0.01 in Rain Light Rain
12:08 AM 33.8 °F - 32.0 °F 93% 29.33 in 2.0 mi Calm Calm - 0.01 in Rain Light Rain
12:14 AM 33.8 °F - 32.0 °F 93% 29.33 in 1.5 mi Calm Calm - 0.01 in Rain Light Rain
12:27 AM 33.8 °F - 32.0 °F 93% 29.32 in 2.0 mi Calm Calm - 0.02 in Rain Light Rain
12:45 AM 33.8 °F - 32.0 °F 93% 29.32 in 2.0 mi Calm Calm - 0.03 in Rain Light Rain
12:50 AM 33.8 °F - 32.0 °F 93% 29.32 in 1.2 mi Calm Calm - 0.03 in Rain Light Rain
12:52 AM 33.1 °F - 32.0 °F 96% 29.36 in 1.0 mi Calm Calm - 0.03 in Rain Light Rain
1:41 AM 33.8 °F 30.8 °F 32.0 °F 93% 29.34 in 1.8 mi Variable 3.5 mph - 0.02 in Rain Light Rain
1:49 AM 35.6 °F 30.7 °F 33.8 °F 93% 29.35 in 2.5 mi North 5.8 mph - 0.02 in   Overcast
1:52 AM 35.1 °F 31.0 °F 33.1 °F 92% 29.39 in 3.0 mi North 4.6 mph - 0.02 in Rain Light Rain
2:09 AM 35.6 °F 30.7 °F 33.8 °F 93% 29.36 in 5.0 mi NNW 5.8 mph - 0.02 in Rain Light Rain
2:52 AM 35.1 °F 28.6 °F 32.0 °F 89% 29.42 in 9.0 mi NNW 8.1 mph - 0.04 in Rain Light Rain
3:13 AM 33.8 °F 28.6 °F 32.0 °F 93% 29.39 in 5.0 mi NNW 5.8 mph - 0.01 in Snow Light Snow
3:34 AM 33.8 °F 30.8 °F 32.0 °F 93% 29.40 in 2.0 mi North 3.5 mph - 0.01 in Snow Light Snow
3:52 AM 33.1 °F 30.0 °F 32.0 °F 96% 29.44 in 2.0 mi North 3.5 mph - 0.02 in Snow Light Snow
4:01 AM 33.8 °F 29.6 °F 32.0 °F 93% 29.41 in 1.8 mi North 4.6 mph - 0.00 in Snow Light Snow
4:08 AM 33.8 °F 30.8 °F 32.0 °F 93% 29.41 in 1.5 mi NNW 3.5 mph - 0.00 in Snow Light Snow
4:20 AM 33.8 °F 30.8 °F 32.0 °F 93% 29.41 in 1.2 mi North 3.5 mph - 0.00 in Snow Light Snow
4:52 AM 33.1 °F 28.7 °F 30.9 °F 92% 29.47 in 1.0 mi NNW 4.6 mph - 0.00 in Snow Light Snow
5:07 AM 33.8 °F 28.6 °F 30.2 °F 87% 29.44 in 0.8 mi NW 5.8 mph - 0.00 in Snow Light Snow
5:15 AM 32.0 °F 26.4 °F 30.2 °F 93% 29.44 in 0.8 mi NW 5.8 mph - 0.00 in Snow Light Snow
5:42 AM 32.0 °F 24.8 °F 28.4 °F 87% 29.46 in 1.0 mi NW 8.1 mph - 0.00 in Snow Light Snow
5:52 AM 30.9 °F 22.8 °F 28.9 °F 92% 29.50 in 1.0 mi NW 9.2 mph 16.1 mph 0.00 in Snow Light Snow
6:25 AM 30.2 °F 23.4 °F 28.4 °F 93% 29.49 in 0.8 mi Variable 6.9 mph - 0.00 in Snow Light Snow
6:52 AM 30.0 °F 24.1 °F 27.0 °F 88% 29.54 in 0.8 mi NW 5.8 mph - 0.00 in Snow Light Snow
7:20 AM 28.4 °F 19.1 °F 26.6 °F 93% 29.51 in 1.0 mi NW 10.4 mph 19.6 mph 0.00 in Snow Light Snow
7:43 AM 28.4 °F 19.7 °F 24.8 °F 86% 29.52 in 0.8 mi NW 9.2 mph 17.3 mph 0.00 in Snow Light Snow
7:52 AM 27.0 °F 17.3 °F 24.1 °F 89% 29.58 in 0.5 mi NW 10.4 mph 19.6 mph 0.00 in Fog , Snow Snow
8:00 AM 26.6 °F 16.8 °F 24.8 °F 93% 29.53 in 0.2 mi NW 10.4 mph 18.4 mph 0.00 in Fog , Snow Snow
8:07 AM 26.6 °F 17.5 °F 24.8 °F 93% 29.54 in 0.5 mi NW 9.2 mph 18.4 mph 0.00 in Fog , Snow Snow
8:52 AM 26.1 °F 16.8 °F 21.0 °F 81% 29.61 in 1.2 mi NNW 9.2 mph 19.6 mph 0.00 in Snow Light Snow
8:59 AM 26.6 °F 15.7 °F 21.2 °F 80% 29.57 in 1.5 mi NW 12.7 mph 19.6 mph 0.00 in Snow Light Snow
9:03 AM 26.6 °F 19.1 °F 19.4 °F 74% 29.57 in 2.0 mi NNW 6.9 mph 18.4 mph 0.00 in Snow Light Snow
9:10 AM 26.6 °F 16.2 °F 19.4 °F 74% 29.57 in 1.8 mi NW 11.5 mph 23.0 mph 0.00 in Snow Light Snow
9:19 AM 26.6 °F 17.5 °F 19.4 °F 74% 29.57 in 3.0 mi NW 9.2 mph 18.4 mph 0.00 in Snow Light Snow
9:52 AM 25.0 °F 14.2 °F 19.0 °F 78% 29.63 in 5.0 mi NW 11.5 mph 23.0 mph 0.00 in Snow Light Snow
10:03 AM 24.8 °F 14.6 °F 19.4 °F 80% 29.58 in 4.0 mi NNW 10.4 mph 24.2 mph 0.00 in Snow Light Snow
10:13 AM 24.8 °F 16.1 °F 19.4 °F 80% 29.60 in 10.0 mi NW 8.1 mph 18.4 mph 0.00 in   Mostly Cloudy
10:23 AM 24.8 °F 12.4 °F 19.4 °F 80% 29.60 in 8.0 mi NW 15.0 mph 23.0 mph 0.00 in   Mostly Cloudy
11:31 AM 24.8 °F 15.3 °F 17.6 °F 74% 29.61 in 10.0 mi NNW 9.2 mph 20.7 mph 0.00 in   Mostly Cloudy
11:52 AM 26.1 °F 14.5 °F 18.0 °F 71% 29.66 in 9.0 mi NW 13.8 mph 20.7 mph 0.00 in   Mostly Cloudy
12:52 PM 26.1 °F 19.4 °F 19.0 °F 75% 29.68 in 10.0 mi Variable 5.8 mph - 0.00 in   Mostly Cloudy
1:01 PM 24.8 °F 16.1 °F 17.6 °F 74% 29.63 in 10.0 mi NW 8.1 mph - N/A   Mostly Cloudy
1:52 PM 23.0 °F 13.1 °F 18.0 °F 81% 29.70 in 10.0 mi WNW 9.2 mph - N/A   Overcast
2:52 PM 21.0 °F 10.6 °F 16.0 °F 81% 29.75 in 10.0 mi WNW 9.2 mph 16.1 mph N/A   Overcast
3:52 PM 19.0 °F 9.0 °F 14.0 °F 81% 29.80 in 6.0 mi WNW 8.1 mph - N/A   Haze
4:52 PM 18.0 °F 7.7 °F 12.0 °F 78% 29.83 in 6.0 mi WNW 8.1 mph - 0.00 in Snow Light Snow
5:52 PM 16.0 °F 7.4 °F 10.0 °F 77% 29.87 in 5.0 mi Variable 5.8 mph 16.1 mph 0.00 in Snow Light Snow
6:02 PM 15.8 °F 8.6 °F 10.4 °F 79% 29.81 in 5.0 mi Variable 4.6 mph - 0.00 in Snow Light Snow
6:52 PM 12.9 °F 2.6 °F 7.0 °F 77% 29.90 in 10.0 mi WNW 6.9 mph - 0.00 in   Overcast
7:34 PM 10.4 °F - 6.8 °F 85% 29.86 in 10.0 mi Calm Calm - N/A   Scattered Clouds
7:52 PM 12.0 °F 1.5 °F 6.1 °F 77% 29.91 in 10.0 mi NW 6.9 mph - N/A   Partly Cloudy
8:52 PM 8.1 °F 1.4 °F 3.9 °F 83% 29.92 in 10.0 mi North 3.5 mph - N/A   Clear
9:52 PM 1.0 °F - -2.9 °F 83% 29.93 in 10.0 mi Calm Calm - N/A   Clear
10:52 PM -0.9 °F -8.9 °F -5.1 °F 83% 29.94 in 10.0 mi NNE 3.5 mph - N/A   Clear
11:52 PM 1.9 °F -5.6 °F -0.9 °F 88% 29.93 in 10.0 mi NNW 3.5 mph - N/A   Clear